STARLINK-37228, 68570

Orbit data source: Space-Track

STARLINK-37228, 68570 is a payload satellite owned by SpaceX/Seattle (US) in LEO that was launched on Thu, 02 Apr 2026 UTC via an FALCON 9 launch vehicle from the Air Force Eastern Test Range (AFETR). Payload-class satellites include a variety of spacecraft equipped with specific instruments for various scientific and technological missions. These include communications satellites like Starlink; space stations such as the ISS; scientific satellites like the Hubble; Earth observation satellites from companies like Planet Labs, Umbra, and HawkEye 360; GPS; miniature CubeSats for education and research; and military/defense satellites.

Loading next visibility...
Identifier
68570, 2026-070AE
Orbit
LEO
Country
Flag of USUS
Related business
Manufacturer
SpaceX/Seattle
Mission
Operational Commercial Communications
Bus & Motor
STARLINK V2MO, Unknown motor
Mass
575 kg wet, ~530 kg dry
Launch date (UTC)
2026-04-02 (5 months ago)
Launch vehicle
FALCON 9
Launch site
Air Force Eastern Test Range (AFETR)
Object type
Payload
Rocket body
Debris
Shape & HBR
Box + 1 Pan, 17.7 m
Radar Cross Section
41.120 m², Large (>1 m²)

Expand to show TLE details & history
Last TLE update: 23 hours ago

TLE from 23 hours ago
0 STARLINK-37228
1 68570U 26070AE  26246.43815505  .00012539  00000-0  38158-3 0  9990
2 68570  53.1587 253.7938 0001315  91.4401 268.6753 15.34403419 23818
Epoch: 2026-09-03T10:30Z
TLE epoch observation values (Epoch: 2026-09-03T10:30:56.596Z)
Latitude
0.00005°
Longitude
113.48169°
Altitude
463.615 km
Speed
7.636 km/s
True Right ascension
16h 55m 10s
True Declination
0° 00' 00"
Sunlit
Object was in daylight at epoch
Visualization orbit readout
Latitude
Unknown
Longitude
Unknown
Altitude
Unknown
Speed
Unknown
Apparent Right ascension
Unknown
Apparent Declination
Unknown
Sunlit
N/A
Visualization observer readout
Local Sidereal Time
01:36:48
Azimuth
Unknown
Elevation
Unknown
Doppler factor
Unknown
Orbital elements
Apogee altitude
463.85 km
Perigee altitude
462.051 km
Semi-major axis
6,841.087 km
Eccentricity
0.00013
Inclination
53.1587°
RAAN
253.7938°
Arg. of periapsis
91.4401°
True anomaly
268.66024°
Mean anomaly
268.6753°
Eccentric anomaly
268.66777°
Mean motion
3.8358 °/min
Orbital period
93.85 mins
BSTAR
0.00038158
Loading maneuver chart data...
Computing Atmospheric mass density...
Loading historical data...
Loading historical data...
Loading historical data...
Loading historical data...
Loading historical data...
Loading historical data...
Loading historical data...

Documentation

Showing up to 5 results
|